• In Hungary
  • List of Countries
  • For 7 days
  • Water Temperature
  • Satellite Maps
  • Weather Map
  • News
  • Weather Widgets
  • user-avatar
    Login

    Hourly Weather Baranovichi

    Today, 23 October, Monday

    Time Temperature Precipitation Wind Pressure Humidity
    00:00 0°C° 0 mm 3 mps 747 mmHg 82%
    01:00 0°C° 0 mm 3 mps 747 mmHg 83%
    02:00 0°C° 0 mm 3 mps 747 mmHg 84%
    03:00 0°C° 0 mm 3 mps 746 mmHg 84%
    04:00 0°C° 0 mm 3 mps 746 mmHg 84%
    05:00 0°C° 0 mm 3 mps 746 mmHg 84%
    06:00 0°C° 0 mm 3 mps 746 mmHg 84%
    07:00 0°C° 0 mm 3 mps 746 mmHg 83%
    08:00 -1°C° 0 mm 4 mps 746 mmHg 83%
    09:00 0°C° 0 mm 4 mps 746 mmHg 79%
    10:00 +3°C° 0 mm 4 mps 746 mmHg 75%
    11:00 +4°C° 0 mm 4 mps 746 mmHg 70%
    12:00 +4°C° 0 mm 4 mps 746 mmHg 68%
    13:00 +5°C° 0 mm 5 mps 746 mmHg 65%
    14:00 +5°C° 0 mm 5 mps 746 mmHg 62%
    15:00 +5°C° 0 mm 4 mps 747 mmHg 64%
    16:00 +4°C° 0 mm 4 mps 747 mmHg 66%
    17:00 +3°C° 0 mm 3 mps 747 mmHg 67%
    18:00 +3°C° 0 mm 4 mps 747 mmHg 68%
    19:00 +3°C° 0 mm 4 mps 748 mmHg 69%
    20:00 +1°C° 0 mm 4 mps 748 mmHg 69%
    21:00 +1°C° 0 mm 4 mps 749 mmHg 70%
    22:00 +1°C° 0 mm 4 mps 749 mmHg 71%
    23:00 0°C° 0 mm 4 mps 750 mmHg 73%

    Tomorrow, 24 October, Tuesday

    Time Temperature Precipitation Wind Pressure Humidity
    00:00 0°C° 0 mm 4 mps 750 mmHg 74%
    01:00 0°C° 0 mm 4 mps 750 mmHg 74%
    02:00 0°C° 0 mm 4 mps 751 mmHg 75%
    03:00 -1°C° 0 mm 4 mps 751 mmHg 76%
    04:00 -1°C° 0 mm 4 mps 751 mmHg 77%
    05:00 -1°C° 0 mm 4 mps 751 mmHg 78%
    06:00 -1°C° 0 mm 4 mps 752 mmHg 77%
    07:00 -1°C° 0 mm 4 mps 752 mmHg 76%
    08:00 -1°C° 0 mm 4 mps 753 mmHg 76%
    09:00 0°C° 0 mm 4 mps 753 mmHg 71%
    10:00 +1°C° 0 mm 4 mps 754 mmHg 67%
    11:00 +3°C° 0 mm 4 mps 754 mmHg 62%
    12:00 +3°C° 0 mm 4 mps 754 mmHg 60%
    13:00 +4°C° 0 mm 3 mps 754 mmHg 58%
    14:00 +5°C° 0 mm 3 mps 754 mmHg 56%
    15:00 +4°C° 0 mm 3 mps 754 mmHg 61%
    16:00 +3°C° 0 mm 3 mps 755 mmHg 65%
    17:00 +3°C° 0 mm 2 mps 755 mmHg 70%
    18:00 +2°C° 0 mm 2 mps 755 mmHg 72%
    19:00 +1°C° 0 mm 2 mps 755 mmHg 75%
    20:00 +1°C° 0 mm 2 mps 756 mmHg 77%
    21:00 -1°C° 0 mm 2 mps 756 mmHg 78%
    22:00 -1°C° 0 mm 2 mps 756 mmHg 79%
    23:00 -1°C° 0 mm 2 mps 756 mmHg 80%

    Day after tomorrow, 25 October, Wednesday

    Time Temperature Precipitation Wind Pressure Humidity
    00:00 -1°C° 0 mm 2 mps 756 mmHg 80%
    01:00 -1°C° 0 mm 2 mps 756 mmHg 79%
    02:00 -2°C° 0 mm 2 mps 756 mmHg 79%
    03:00 -2°C° 0 mm 2 mps 757 mmHg 79%
    04:00 -2°C° 0 mm 2 mps 757 mmHg 79%
    05:00 -2°C° 0 mm 2 mps 757 mmHg 79%
    06:00 -2°C° 0 mm 2 mps 757 mmHg 79%
    07:00 -2°C° 0 mm 3 mps 757 mmHg 78%
    08:00 -2°C° 0 mm 3 mps 757 mmHg 78%
    09:00 0°C° 0 mm 3 mps 757 mmHg 72%
    10:00 +1°C° 0 mm 3 mps 757 mmHg 66%
    11:00 +1°C° 0 mm 4 mps 756 mmHg 61%
    12:00 +3°C° 0 mm 4 mps 756 mmHg 59%
    13:00 +4°C° 0 mm 4 mps 755 mmHg 57%
    14:00 +4°C° 0 mm 4 mps 755 mmHg 56%
    15:00 +4°C° 0 mm 4 mps 755 mmHg 59%
    16:00 +3°C° 0 mm 3 mps 754 mmHg 62%
    17:00 +2°C° 0 mm 3 mps 754 mmHg 65%
    18:00 +1°C° 0.1 mm 4 mps 754 mmHg 65%
    19:00 +3°C° 0.1 mm 4 mps 753 mmHg 64%
    20:00 +2°C° 0.1 mm 5 mps 753 mmHg 64%
    21:00 +2°C° 0.2 mm 5 mps 752 mmHg 66%
    22:00 +2°C° 0.2 mm 5 mps 752 mmHg 67%
    23:00 +2°C° 0.2 mm 6 mps 751 mmHg 69%

    26 October, Thursday

    Time Temperature Precipitation Wind Pressure Humidity
    00:00 +2°C° 0.9 mm 5 mps 750 mmHg 74%
    01:00 +2°C° 0.9 mm 5 mps 750 mmHg 79%
    02:00 +2°C° 0.9 mm 5 mps 749 mmHg 84%
    03:00 +3°C° 0.1 mm 4 mps 749 mmHg 86%
    04:00 +4°C° 0.1 mm 4 mps 748 mmHg 89%
    05:00 +4°C° 0.1 mm 4 mps 748 mmHg 92%
    06:00 +4°C° 0 mm 3 mps 748 mmHg 93%
    07:00 +5°C° 0 mm 3 mps 748 mmHg 95%
    08:00 +5°C° 0 mm 3 mps 748 mmHg 96%
    09:00 +7°C° 0 mm 3 mps 748 mmHg 95%
    10:00 +8°C° 0 mm 3 mps 747 mmHg 94%
    11:00 +9°C° 0 mm 3 mps 747 mmHg 93%
    12:00 +9°C° 0 mm 3 mps 747 mmHg 91%
    13:00 +10°C° 0 mm 4 mps 746 mmHg 90%
    14:00 +10°C° 0 mm 4 mps 746 mmHg 88%
    15:00 +10°C° 0.1 mm 4 mps 746 mmHg 89%
    16:00 +9°C° 0.1 mm 3 mps 745 mmHg 90%
    17:00 +9°C° 0.1 mm 3 mps 745 mmHg 91%
    18:00 +9°C° 0 mm 3 mps 745 mmHg 92%
    19:00 +8°C° 0 mm 3 mps 744 mmHg 92%
    20:00 +8°C° 0 mm 3 mps 744 mmHg 93%
    21:00 +7°C° 0 mm 4 mps 744 mmHg 93%
    22:00 +7°C° 0 mm 4 mps 744 mmHg 94%
    23:00 +7°C° 0 mm 4 mps 743 mmHg 94%

    27 October, Friday

    Time Temperature Precipitation Wind Pressure Humidity
    00:00 +7°C° 0 mm 4 mps 743 mmHg 94%
    01:00 +7°C° 0 mm 4 mps 743 mmHg 94%
    02:00 +7°C° 0 mm 4 mps 742 mmHg 94%
    03:00 +7°C° 0 mm 4 mps 742 mmHg 93%
    04:00 +7°C° 0 mm 4 mps 742 mmHg 93%
    05:00 +8°C° 0 mm 3 mps 741 mmHg 93%
    06:00 +8°C° 0 mm 3 mps 741 mmHg 93%
    07:00 +8°C° 0 mm 3 mps 740 mmHg 94%
    08:00 +8°C° 0 mm 3 mps 740 mmHg 94%
    09:00 +8°C° 0.1 mm 3 mps 740 mmHg 91%
    10:00 +8°C° 0.1 mm 4 mps 739 mmHg 88%
    11:00 +8°C° 0.1 mm 4 mps 739 mmHg 85%
    12:00 +8°C° 0.2 mm 4 mps 738 mmHg 83%
    13:00 +10°C° 0.2 mm 4 mps 737 mmHg 81%
    14:00 +10°C° 0.2 mm 4 mps 737 mmHg 80%
    15:00 +8°C° 0.3 mm 4 mps 736 mmHg 82%
    16:00 +8°C° 0.3 mm 4 mps 736 mmHg 85%
    17:00 +8°C° 0.3 mm 3 mps 735 mmHg 88%
    18:00 +8°C° 0.2 mm 3 mps 735 mmHg 89%
    19:00 +7°C° 0.2 mm 3 mps 735 mmHg 90%
    20:00 +7°C° 0.2 mm 3 mps 735 mmHg 92%
    21:00 +7°C° 0.1 mm 3 mps 734 mmHg 92%
    22:00 +5°C° 0.1 mm 3 mps 734 mmHg 93%
    23:00 +5°C° 0.1 mm 3 mps 734 mmHg 94%

    28 October, Saturday

    Time Temperature Precipitation Wind Pressure Humidity
    00:00 +5°C° 0 mm 3 mps 734 mmHg 94%
    01:00 +5°C° 0 mm 3 mps 733 mmHg 94%
    02:00 +5°C° 0 mm 3 mps 733 mmHg 94%
    03:00 +5°C° 0.1 mm 3 mps 733 mmHg 94%
    04:00 +5°C° 0.1 mm 3 mps 733 mmHg 94%
    05:00 +7°C° 0.1 mm 3 mps 732 mmHg 93%
    06:00 +7°C° 0.2 mm 3 mps 733 mmHg 92%
    07:00 +6°C° 0.2 mm 4 mps 733 mmHg 91%
    08:00 +6°C° 0.2 mm 4 mps 733 mmHg 91%
    09:00 +6°C° 0 mm 4 mps 733 mmHg 87%
    10:00 +7°C° 0 mm 4 mps 733 mmHg 83%
    11:00 +7°C° 0 mm 4 mps 733 mmHg 80%
    12:00 +7°C° 0.1 mm 4 mps 733 mmHg 78%
    13:00 +8°C° 0.1 mm 4 mps 733 mmHg 76%
    14:00 +9°C° 0.1 mm 3 mps 733 mmHg 75%
    15:00 +8°C° 0.1 mm 3 mps 733 mmHg 78%
    16:00 +7°C° 0.1 mm 2 mps 734 mmHg 81%
    17:00 +7°C° 0.1 mm 2 mps 734 mmHg 85%
    18:00 +6°C° 0 mm 2 mps 734 mmHg 87%
    19:00 +6°C° 0 mm 2 mps 735 mmHg 89%
    20:00 +5°C° 0 mm 2 mps 735 mmHg 92%
    21:00 +5°C° 0 mm 2 mps 735 mmHg 92%
    22:00 +5°C° 0 mm 2 mps 736 mmHg 93%
    23:00 +5°C° 0 mm 2 mps 736 mmHg 94%

    29 October, Sunday

    Time Temperature Precipitation Wind Pressure Humidity
    00:00 +4°C° 0 mm 2 mps 736 mmHg 94%
    01:00 +4°C° 0 mm 2 mps 736 mmHg 95%
    02:00 +4°C° 0 mm 2 mps 737 mmHg 96%
    03:00 +4°C° 0 mm 2 mps 737 mmHg 96%
    04:00 +4°C° 0 mm 2 mps 737 mmHg 96%
    05:00 +3°C° 0 mm 2 mps 737 mmHg 96%
    06:00 +4°C° 0 mm 2 mps 737 mmHg 96%
    07:00 +4°C° 0 mm 2 mps 738 mmHg 96%
    08:00 +4°C° 0 mm 2 mps 738 mmHg 96%
    09:00 +5°C° 0 mm 2 mps 738 mmHg 93%
    10:00 +5°C° 0 mm 3 mps 738 mmHg 90%
    11:00 +7°C° 0 mm 3 mps 739 mmHg 87%
    12:00 +7°C° 0 mm 3 mps 738 mmHg 85%
    13:00 +7°C° 0 mm 3 mps 738 mmHg 82%
    14:00 +8°C° 0 mm 3 mps 738 mmHg 80%
    15:00 +7°C° 0 mm 3 mps 738 mmHg 82%
    16:00 +7°C° 0 mm 3 mps 738 mmHg 83%
    17:00 +5°C° 0 mm 3 mps 737 mmHg 84%
    18:00 +5°C° 0 mm 3 mps 737 mmHg 85%
    19:00 +5°C° 0 mm 3 mps 737 mmHg 86%
    20:00 +4°C° 0 mm 4 mps 737 mmHg 87%
    21:00 +5°C° 0 mm 4 mps 736 mmHg 87%
    22:00 +5°C° 0 mm 4 mps 736 mmHg 87%
    23:00 +5°C° 0 mm 5 mps 735 mmHg 87%
    Show more